Regional Weather Roundup
Issued by NWS Green Bay, WI

Home | Current Version | Previous Version | Graphics & Text | Print | Product List | Glossary Off
Versions: 1 2 3 4 5 6 7 8 9 10 11 12 13 14 15 16 17 18 19 20 21 22 23 24 25 26 27 28 29 30 31 32 33 34 35 36 37 38 39 40 41 42 43 44 45 46 47 48 49 50

159
ASUS43 KGRB 310511
RWRGRB

NORTH-CENTRAL AND NORTHEAST WISCONSIN REGIONAL WEATHER ROUNDUP
NATIONAL WEATHER SERVICE GREEN BAY WI
1200 AM CDT TUE MAY 31 2016

WIZ005-009-010>012-018-019-310600-
NORTH CENTRAL WISCONSIN

CITY           SKY/WX    TMP DP  RH WIND       PRES   REMARKS
IRONWOOD       CLOUDY    61  48  63 E5        30.03R
MANITOWISH WTR NOT AVBL
ARBOR VITAE    CLOUDY    62  48  60 CALM      30.02S
EAGLE RIVER      N/A     54  51  92 CALM      30.02S
LAND O LAKES   MOCLDY    59  47  64 E5        30.04S
RHINELANDER    CLOUDY    62  53  72 NE5       30.01F
PHILLIPS       MOCLDY    58  54  85 CALM      29.98F
ANTIGO         PTCLDY    56  55  95 CALM      30.01S
TOMAHAWK       PTCLDY    56  53  90 CALM      30.00F
MERRILL        NOT AVBL
$$

WIZ013-073-310600-
NORTHEAST WISCONSIN

CITY           SKY/WX    TMP DP  RH WIND       PRES   REMARKS
IRON MOUNTAIN  CLEAR     56  48  74 NE9       30.04R
MARINETTE      CLEAR     61  50  67 E13       30.01S
OCONTO         CLOUDY   N/A N/A N/A CALM      29.97F
$$

WIZ017-030-035>037-045-310600-
CENTRAL WISCONSIN

CITY           SKY/WX    TMP DP  RH WIND       PRES   REMARKS
MEDFORD        PTCLDY    59  56  89 SE3       29.99S
WAUSAU         MOCLDY    63  54  72 E3        29.97F
MOSINEE        CLOUDY    59  52  77 CALM      30.00R
MARSHFIELD     PTCLDY    66  52  60 CALM      29.99R
WISC RAPIDS    MOCLDY    64  50  60 SE5       30.00R
STEVENS POINT  CLOUDY    57  53  88 CALM      30.00R
WAUPACA        CLOUDY    62  61  96 CALM      29.98S
SHAWANO        CLOUDY    62  56  80 CALM      29.98S
CLINTONVILLE   CLOUDY    61  54  77 CALM      29.98S
WAUTOMA        CLOUDY   N/A N/A N/A CALM      29.99S
$$

WIZ038-039-048-051-310600-
FOX VALLEY

CITY           SKY/WX    TMP DP  RH WIND       PRES   REMARKS
NWS GREEN BAY  CLOUDY    64  57  78 CALM      29.97F
APPLETON       PTCLDY    64  52  63 S5        29.98R
OSHKOSH        CLOUDY    63  57  81 S7        29.98S
FOND DU LAC    CLOUDY    64  58  80 S5        29.99S
$$

WIZ022-050-052-310600-
EAST CENTRAL WISCONSIN

CITY           SKY/WX    TMP DP  RH WIND       PRES   REMARKS
EPHRAIM        FAIR      59  52  78 N8        30.00S
STURGEON BAY   NOT AVBL
MANITOWOC      CLOUDY    60  54  80 CALM      29.99F
SHEBOYGAN      CLOUDY    60  55  83 CALM      30.00S
$$

LMZ563-521-522-541>543-310600-
LAKESHORE

STATION/POSITION TIME  TEMP    WIND        PRES    VSBY  WAVE
                       AIR SEA DIR/SP/G                  HT/PER
                 (UTC) (F)     (DEG/KT/KT) (MB)    (MI)  (FT/S)
SHEBOYGAN LKSHOR 0500   64     220/  6/  6 1016.0F
KEWAUNEE LKSHORE 0400   59      CALM  /  1 1014.8
NORTHPORT PIER   0400   60     350/  4/  6 1015.9R
N MID LAKE BUOY  0450   55 50   20/  8/ 10 1016.2R         1
CHAMBERS ISLAND  0400   61      10/  7/ 10 1016.3R
MENOMINEE LKSHOR 0400   62      10/  3/  4 1014.5
$$




USA.gov is the U.S. government's official web portal to all federal, state and local government web resources and services.